Regional Weather Roundup
Issued by NWS Charleston, WV

Home | Current Version | Previous Version | Graphics & Text | Print | Product List | Glossary On
Versions: 1 2 3 4 5 6 7 8 9 10 11 12 13 14 15 16 17 18 19 20 21 22 23 24 25 26 27 28 29 30 31 32 33 34 35 36 37 38 39 40 41 42 43 44 45 46 47 48 49 50
000
ASUS41 KRLX 270310
RWRRLX
West Virginia Regional Weather Roundup
National Weather Service Charleston WV
1000 PM EST MON JAN 26 2015

Note: "fair" indicates few or no clouds below 12,000 feet with no
significant weather and/or obstructions to visibility.

WVZ003-270400-
Northern Panhandle of West Virginia

CITY           SKY/WX    TMP DP  RH WIND       PRES   REMARKS
WHEELING       CLOUDY    22  17  81 NW10      29.85R
$$

WVZ009-270400-
Northwest West Virginia

CITY           SKY/WX    TMP DP  RH WIND       PRES   REMARKS
PARKERSBURG    CLOUDY    23  18  81 W9        29.93R
$$

WVZ006-270400-
Western West Virginia

CITY           SKY/WX    TMP DP  RH WIND       PRES   REMARKS
HUNTINGTON     CLOUDY    25  20  81 NW3       29.93R
$$

WVZ015-270400-
West Central West Virginia

CITY           SKY/WX    TMP DP  RH WIND       PRES   REMARKS
CHARLESTON     FLURRIES  26  21  81 NW9       29.90S
$$

WVZ022-031-270400-
North Central West Virginia

CITY           SKY/WX    TMP DP  RH WIND       PRES   REMARKS
CLARKSBURG     CLOUDY    26  22  84 W5        29.84S
MORGANTOWN     FLURRIES  25  18  74 NW3       29.83F
$$

WVZ025-035-042-045-270400-
Southern West Virginia

CITY           SKY/WX    TMP DP  RH WIND       PRES   REMARKS
BECKLEY        CLOUDY    22  20  92 NW10      29.79S FOG
LOGAN          CLOUDY    25  19  80 W3        29.88R
BLUEFIELD      FOG       23  19  85 W10G21    29.77S VSB 1/2
LEWISBURG      CLOUDY    26  22  86 W5        29.77S
$$

WVZ047-270400-
Northern Mountains of West Virginia

CITY           SKY/WX    TMP DP  RH WIND       PRES   REMARKS
ELKINS         MIX PCPN  23  23 100 W7        29.79S FOG
$$

WVZ052-270400-
Eastern Panhandle of West Virginia

CITY           SKY/WX    TMP DP  RH WIND       PRES   REMARKS
MARTINSBURG    LGT SNOW  27  22  81 N7        29.79F
PETERSBURG     LGT SNOW  29  29  99 CALM      29.78F
$$


USA.gov is the U.S. government's official web portal to all federal, state and local government web resources and services.